Regional Weather Roundup
Issued by NWS Green Bay, WI

Home | Current Version | Previous Version | Text Only | Print | Product List | Glossary On
Versions: 1 2 3 4 5 6 7 8 9 10 11 12 13 14 15 16 17 18 19 20 21 22 23 24 25 26 27 28 29 30 31 32 33 34 35 36 37 38 39 40 41 42 43 44 45 46 47 48 49 50
000
ASUS43 KGRB 021911
RWRGRB

NORTH-CENTRAL AND NORTHEAST WISCONSIN REGIONAL WEATHER ROUNDUP
NATIONAL WEATHER SERVICE GREEN BAY WI
200 PM CDT TUE JUN 02 2015

WIZ005-009-010>012-018-019-022000-
NORTH CENTRAL WISCONSIN

CITY           SKY/WX    TMP DP  RH WIND       PRES   REMARKS
IRONWOOD       MOSUNNY   72  41  33 S7G21     30.01F
MANITOWISH WTR MOSUNNY   68  42  38 S12       30.06F
ARBOR VITAE    MOSUNNY   69  38  31 S7G16     30.08F
EAGLE RIVER    PTSUNNY   70  26  19 S8        30.08F
LAND O LAKES   PTSUNNY   69  29  22 SW12      30.09F
RHINELANDER    MOSUNNY   68  29  23 S13G18    30.10F
PHILLIPS       MOSUNNY   69  45  42 S12       30.07F
ANTIGO         MOSUNNY   67  44  44 S10       30.12F
TOMAHAWK       SUNNY     69  38  33 S6        30.10F
MERRILL        SUNNY     69  39  33 S7        30.10F
$$

WIZ013-073-022000-
NORTHEAST WISCONSIN

CITY           SKY/WX    TMP DP  RH WIND       PRES   REMARKS
IRON MOUNTAIN  MOSUNNY   72  33  24 S12       30.08F
MARINETTE      MOSUNNY   66  43  42 SE15      30.12F
OCONTO         PTSUNNY   66  43  42 SE8       30.12F
$$

WIZ017-030-035>037-045-022000-
CENTRAL WISCONSIN

CITY           SKY/WX    TMP DP  RH WIND       PRES   REMARKS
MEDFORD        SUNNY     67  44  44 SE9       30.10F
WAUSAU         SUNNY     70  38  31 S8        30.09F
MOSINEE        SUNNY     68  39  34 S8        30.11F
MARSHFIELD     SUNNY     70  36  28 S10       30.10F
WISC RAPIDS    SUNNY     72  29  20 S10G17    30.10F
STEVENS POINT  SUNNY     69  38  32 S9        30.11F
WAUPACA        SUNNY     73  41  31 S9        30.12F
SHAWANO        MOSUNNY   71  38  29 S8G16     30.12F
CLINTONVILLE   SUNNY     70  39  32 S7G18     30.12F
$$

WIZ038-039-048-051-022000-
FOX VALLEY

CITY           SKY/WX    TMP DP  RH WIND       PRES   REMARKS
NWS GREEN BAY  MOSUNNY   70  43  37 VRB7      30.12F
APPLETON       MOSUNNY   70  37  30 S12       30.14F
OSHKOSH        SUNNY     71  43  36 SE10G17   30.12F
FOND DU LAC    LGT RAIN  70  43  37 SE12      30.12F
$$

WIZ022-050-052-022000-
EAST CENTRAL WISCONSIN

CITY           SKY/WX    TMP DP  RH WIND       PRES   REMARKS
STURGEON BAY   MOSUNNY   63  41  45 SE12      30.17F
MANITOWOC      MOSUNNY   57  44  62 SE8       30.17F
SHEBOYGAN      SUNNY     66  37  34 SE9       30.16F
$$

LMZ563-521-522-541>543-022000-
LAKESHORE

STATION/POSITION TIME  TEMP    WIND        PRES    VSBY  WAVE
                       AIR SEA DIR/SP/G                  HT/PER
                 (UTC) (F)     (DEG/KT/KT) (MB)    (MI)  (FT/S)
SHEBOYGAN LKSHOR 1900   46     160/ 10/ 11 1022.0F
KEWAUNEE LKSHORE 1800   47     170/ 10/ 11 1021.4F
ALGOMA MARINA    1809          180/  6/  8   N/A
TWO RIVERS CG    1810   49                 1022.6      6   0
NORTHPORT PIER   1800   54     140/ 10/ 12 1021.3F
N MID LAKE BUOY  1850   42 38  200/  6/  8 1022.1F         0
SISTER BAY LKSHO 1818   68     170/ 11/ 16   N/A
STURGEON BAY CG  1905   49     180/ 10     1022.2      6   2
CHAMBERS ISLAND  1800   62      CALM  /  6 1021.3F
MENOMINEE LKSHOR 1800   60     130/  7/  9 1021.5F
$$



USA.gov is the U.S. government's official web portal to all federal, state and local government web resources and services.